Location: Walton
(43.6794°N, 81.3017°W)
Time: 16:47:49
(UTC+00:00)

Cosmos 2322 Rocket - Pass Details

Date: 09 December 2025
Orbit: 831 x 850 km, 71.0° (Epoch: 22 January)

Event Time Altitude Azimuth Distance (km) Brightness Sun altitude
Exits shadow 09:52:55 12° 6° (N) 2,351 4.5 -30.6°
Maximum altitude 09:56:23 19° 47° (NE) 1,903 4.4 -30.0°
Drops below altitude 10° 10:00:23 10° 92° (E) 2,470 5.6 -29.3°
Sets 10:03:33 0° 110° (ESE) 3,398 6.5 -28.7°
